Time,TemperatureF,DewpointF,PressureIn,WindDirection,WindDirectionDegrees,WindSpeedMPH,WindSpeedGustMPH,Humidity,HourlyPrecipIn,Conditions,Clouds,dailyrainin,SoftwareType,DateUTC
2013-03-21 00:00:00,37.6,20.1,29.77,NW,316,3.0,5.0,49,0.00,OVC,,0.00,WeatherDisplay:10.37,2013-03-21 04:00:00,
2013-03-21 00:05:00,37.6,20.1,29.78,NW,318,3.0,6.0,49,0.00,OVC,,0.00,WeatherDisplay:10.37,2013-03-21 04:05:00,
2013-03-21 00:10:00,37.6,20.1,29.77,NW,317,3.0,5.0,49,0.00,OVC,,0.00,WeatherDisplay:10.37,2013-03-21 04:10:00,
2013-03-21 00:15:00,37.4,20.9,29.77,NNW,327,3.0,10.0,51,0.00,OVC,,0.00,WeatherDisplay:10.37,2013-03-21 04:15:00,
2013-03-21 00:20:00,37.2,19.3,29.77,NW,323,3.0,7.0,48,0.00,OVC,,0.00,WeatherDisplay:10.37,2013-03-21 04:20:00,
2013-03-21 00:25:00,36.9,19.5,29.77,NW,306,5.0,8.0,49,0.00,OVC,,0.00,WeatherDisplay:10.37,2013-03-21 04:25:00,
2013-03-21 00:30:00,36.7,19.8,29.77,NW,309,3.0,8.0,50,0.00,OVC,,0.00,WeatherDisplay:10.37,2013-03-21 04:30:00,
2013-03-21 00:35:00,36.5,20.1,29.77,NW,305,2.0,7.0,51,0.00,OVC,,0.00,WeatherDisplay:10.37,2013-03-21 04:35:00,
2013-03-21 00:40:00,36.3,19.9,29.78,WNW,301,2.0,5.0,51,0.00,OVC,,0.00,WeatherDisplay:10.37,2013-03-21 04:40:00,
2013-03-21 00:45:00,36.3,20.4,29.78,NW,304,1.0,6.0,52,0.00,OVC,,0.00,WeatherDisplay:10.37,2013-03-21 04:45:00,
2013-03-21 00:50:00,36.3,20.4,29.78,NW,319,1.0,4.0,52,0.00,OVC,,0.00,WeatherDisplay:10.37,2013-03-21 04:50:00,
2013-03-21 00:55:00,36.2,20.7,29.78,NW,319,1.0,3.0,53,0.00,OVC,,0.00,WeatherDisplay:10.37,2013-03-21 04:55:00,
2013-03-21 01:00:00,36.1,20.6,29.78,WNW,299,2.0,4.0,53,0.00,OVC,,0.00,WeatherDisplay:10.37,2013-03-21 05:00:00,
2013-03-21 01:05:00,36.0,20.9,29.77,NW,325,3.0,7.0,54,0.00,OVC,,0.00,WeatherDisplay:10.37,2013-03-21 05:05:00,
2013-03-21 01:10:00,36.0,21.8,29.78,NNW,345,2.0,7.0,56,0.00,OVC,,0.00,WeatherDisplay:10.37,2013-03-21 05:10:00,
2013-03-21 01:15:00,35.6,22.7,29.77,NNW,343,1.0,2.0,59,0.00,OVC,,0.00,WeatherDisplay:10.37,2013-03-21 05:15:00,
2013-03-21 01:20:00,34.7,13.9,29.68,NW,312,5.0,8.0,42,0.00,CLR,,0.00,WeatherDisplay:10.37,2013-03-21 05:20:00,
2013-03-21 01:25:00,35.2,23.5,29.76,NNW,347,2.0,4.0,62,0.00,OVC,,0.00,WeatherDisplay:10.37,2013-03-21 05:25:00,
2013-03-21 01:30:00,35.1,23.7,29.77,North,351,2.0,4.0,63,0.00,OVC,,0.00,WeatherDisplay:10.37,2013-03-21 05:30:00,
2013-03-21 01:35:00,34.7,12.2,29.68,WNW,283,7.0,11.0,39,0.00,CLR,,0.00,WeatherDisplay:10.37,2013-03-21 05:35:00,
2013-03-21 01:40:00,35.1,24.1,29.76,NNW,343,2.0,5.0,64,0.00,OVC,,0.00,WeatherDisplay:10.37,2013-03-21 05:40:00,
2013-03-21 01:45:00,34.9,23.9,29.76,NNW,335,3.0,6.0,64,0.00,OVC,,0.00,WeatherDisplay:10.37,2013-03-21 05:45:00,
2013-03-21 01:50:00,34.9,24.3,29.76,NNW,335,2.0,6.0,65,0.00,OVC,,0.00,WeatherDisplay:10.37,2013-03-21 05:50:00,
2013-03-21 01:55:00,34.5,24.0,29.76,NNW,338,2.0,6.0,65,0.00,OVC,,0.00,WeatherDisplay:10.37,2013-03-21 05:55:00,
2013-03-21 02:00:00,34.5,24.3,29.76,NNW,346,2.0,4.0,66,0.00,OVC,,0.00,WeatherDisplay:10.37,2013-03-21 06:00:00,
2013-03-21 02:05:00,34.5,24.7,29.76,North,5,2.0,5.0,67,0.00,OVC,,0.00,WeatherDisplay:10.37,2013-03-21 06:05:00,
2013-03-21 02:10:00,34.3,24.5,29.76,North,353,2.0,5.0,67,0.00,OVC,,0.00,WeatherDisplay:10.37,2013-03-21 06:10:00,
2013-03-21 02:15:00,34.3,24.8,29.76,NW,324,2.0,5.0,68,0.00,OVC,,0.00,WeatherDisplay:10.37,2013-03-21 06:15:00,
2013-03-21 02:20:00,34.1,24.6,29.76,NNW,328,1.0,5.0,68,0.00,OVC,,0.00,WeatherDisplay:10.37,2013-03-21 06:20:00,
2013-03-21 02:25:00,34.0,24.9,29.76,North,350,1.0,3.0,69,0.00,OVC,,0.00,WeatherDisplay:10.37,2013-03-21 06:25:00,
2013-03-21 02:30:00,34.0,25.2,29.76,NNW,346,1.0,2.0,70,0.00,OVC,,0.00,WeatherDisplay:10.37,2013-03-21 06:30:00,
2013-03-21 02:35:00,33.8,25.4,29.76,NNW,335,2.0,4.0,71,0.00,OVC,,0.00,WeatherDisplay:10.37,2013-03-21 06:35:00,
2013-03-21 02:40:00,33.6,25.9,29.75,NW,321,2.0,4.0,73,0.00,OVC,,0.00,WeatherDisplay:10.37,2013-03-21 06:40:00,
2013-03-21 02:45:00,33.4,25.7,29.75,NNW,329,2.0,4.0,73,0.00,-SN,,0.00,WeatherDisplay:10.37,2013-03-21 06:45:00,
2013-03-21 02:50:00,33.3,25.9,29.75,NNW,333,2.0,5.0,74,0.00,-SN,,0.00,WeatherDisplay:10.37,2013-03-21 06:50:00,
2013-03-21 02:55:00,33.1,26.0,29.75,NNW,328,2.0,5.0,75,0.00,-SN,,0.00,WeatherDisplay:10.37,2013-03-21 06:55:00,
2013-03-21 03:00:00,32.9,25.9,29.74,NNW,336,2.0,6.0,75,0.00,-SN,,0.00,WeatherDisplay:10.37,2013-03-21 07:00:00,
2013-03-21 03:05:00,32.9,26.2,29.74,NNW,339,2.0,5.0,76,0.00,-SN,,0.00,WeatherDisplay:10.37,2013-03-21 07:05:00,
2013-03-21 03:10:00,32.7,26.0,29.75,NW,321,1.0,6.0,76,0.00,-SN,,0.00,WeatherDisplay:10.37,2013-03-21 07:10:00,
2013-03-21 03:15:00,32.7,26.3,29.75,NW,321,1.0,4.0,77,0.00,-SN,,0.00,WeatherDisplay:10.37,2013-03-21 07:15:00,
2013-03-21 03:20:00,38.7,14.6,29.65,NNE,27,3.0,7.0,37,0.00,CLR,,0.00,WeatherDisplay:10.37,2013-03-21 07:20:00,
2013-03-21 03:25:00,39.4,13.3,29.65,NNW,331,1.0,7.0,34,0.00,CLR,,0.00,WeatherDisplay:10.37,2013-03-21 07:25:00,
2013-03-21 03:30:00,40.1,13.9,29.64,NW,307,6.0,8.0,34,0.00,CLR,,0.00,WeatherDisplay:10.37,2013-03-21 07:30:00,
2013-03-21 03:35:00,39.4,10.5,29.64,West,279,5.0,9.0,30,0.00,CLR,,0.00,WeatherDisplay:10.37,2013-03-21 07:35:00,
2013-03-21 03:40:00,38.7,10.6,29.64,WNW,288,8.0,10.0,31,0.00,CLR,,0.00,WeatherDisplay:10.37,2013-03-21 07:40:00,
2013-03-21 03:45:00,39.0,11.6,29.64,WNW,287,3.0,10.0,32,0.00,CLR,,0.00,WeatherDisplay:10.37,2013-03-21 07:45:00,
2013-03-21 03:50:00,39.6,12.1,29.63,WNW,296,1.0,4.0,32,0.00,CLR,,0.00,WeatherDisplay:10.37,2013-03-21 07:50:00,
2013-03-21 03:55:00,39.6,10.6,29.63,NW,325,6.0,10.0,30,0.00,CLR,,0.00,WeatherDisplay:10.37,2013-03-21 07:55:00,
2013-03-21 04:00:00,39.0,10.9,29.63,NW,308,5.0,10.0,31,0.00,CLR,,0.00,WeatherDisplay:10.37,2013-03-21 08:00:00,
2013-03-21 04:05:00,39.0,10.9,29.63,NW,317,6.0,8.0,31,0.00,CLR,,0.00,WeatherDisplay:10.37,2013-03-21 08:05:00,
2013-03-21 04:10:00,39.2,11.0,29.63,NW,325,3.0,8.0,31,0.00,CLR,,0.00,WeatherDisplay:10.37,2013-03-21 08:10:00,
2013-03-21 04:15:00,39.7,12.9,29.62,NW,311,5.0,6.0,33,0.00,CLR,,0.00,WeatherDisplay:10.37,2013-03-21 08:15:00,
2013-03-21 04:20:00,40.1,11.1,29.62,WNW,301,3.0,6.0,30,0.00,CLR,,0.00,WeatherDisplay:10.37,2013-03-21 08:20:00,
2013-03-21 04:25:00,40.8,13.2,29.62,NW,315,3.0,5.0,32,0.00,CLR,,0.00,WeatherDisplay:10.37,2013-03-21 08:25:00,
2013-03-21 04:30:00,41.9,13.4,29.62,NW,315,1.0,5.0,31,0.00,CLR,,0.00,WeatherDisplay:10.37,2013-03-21 08:30:00,
2013-03-21 04:35:00,42.3,12.2,29.62,NW,315,7.0,10.0,29,0.00,CLR,,0.00,WeatherDisplay:10.37,2013-03-21 08:35:00,
2013-03-21 04:40:00,42.3,10.6,29.61,NW,315,5.0,10.0,27,0.00,CLR,,0.00,WeatherDisplay:10.37,2013-03-21 08:40:00,
2013-03-21 04:45:00,42.8,11.1,29.61,NW,317,1.0,7.0,27,0.00,CLR,,0.00,WeatherDisplay:10.37,2013-03-21 08:45:00,
2013-03-21 04:50:00,43.2,9.7,29.61,North,355,6.0,6.0,25,0.00,CLR,,0.00,WeatherDisplay:10.37,2013-03-21 08:50:00,
2013-03-21 04:55:00,42.4,9.0,29.60,ENE,77,3.0,8.0,25,0.00,CLR,,0.00,WeatherDisplay:10.37,2013-03-21 08:55:00,
2013-03-21 05:00:00,42.3,9.8,29.60,NNE,27,5.0,8.0,26,0.00,CLR,,0.00,WeatherDisplay:10.37,2013-03-21 09:00:00,
2013-03-21 05:05:00,42.1,9.6,29.60,NW,315,5.0,7.0,26,0.00,CLR,,0.00,WeatherDisplay:10.37,2013-03-21 09:05:00,
2013-03-21 05:10:00,42.1,9.6,29.60,NW,315,12.0,16.0,26,0.00,CLR,,0.00,WeatherDisplay:10.37,2013-03-21 09:10:00,
2013-03-21 05:15:00,41.7,9.3,29.60,NW,310,9.0,16.0,26,0.00,CLR,,0.00,WeatherDisplay:10.37,2013-03-21 09:15:00,
2013-03-21 05:20:00,40.5,9.1,29.60,WNW,290,3.0,11.0,27,0.00,CLR,,0.00,WeatherDisplay:10.37,2013-03-21 09:20:00,
2013-03-21 05:25:00,40.5,9.1,29.60,WSW,257,2.0,6.0,27,0.00,CLR,,0.00,WeatherDisplay:10.37,2013-03-21 09:25:00,
2013-03-21 05:30:00,41.2,9.7,29.60,West,272,5.0,6.0,27,0.00,CLR,,0.00,WeatherDisplay:10.37,2013-03-21 09:30:00,
2013-03-21 05:35:00,41.9,11.1,29.59,WNW,294,2.0,6.0,28,0.00,CLR,,0.00,WeatherDisplay:10.37,2013-03-21 09:35:00,
2013-03-21 05:40:00,42.8,9.3,29.59,WNW,286,2.0,5.0,25,0.00,CLR,,0.00,WeatherDisplay:10.37,2013-03-21 09:40:00,
2013-03-21 05:45:00,42.4,9.9,29.59,WNW,295,6.0,7.0,26,0.00,CLR,,0.00,WeatherDisplay:10.37,2013-03-21 09:45:00,
2013-03-21 05:50:00,42.3,9.8,29.59,WNW,301,3.0,7.0,26,0.00,CLR,,0.00,WeatherDisplay:10.37,2013-03-21 09:50:00,
2013-03-21 05:55:00,42.4,9.9,29.59,WNW,299,1.0,7.0,26,0.00,CLR,,0.00,WeatherDisplay:10.37,2013-03-21 09:55:00,
2013-03-21 06:00:00,43.3,9.8,29.59,WNW,296,1.0,4.0,25,0.00,CLR,,0.00,WeatherDisplay:10.37,2013-03-21 10:00:00,
2013-03-21 06:05:00,44.2,10.6,29.59,West,259,3.0,5.0,25,0.00,CLR,,0.00,WeatherDisplay:10.37,2013-03-21 10:05:00,
2013-03-21 06:10:00,44.4,9.8,29.59,SW,231,3.0,5.0,24,0.00,CLR,,0.00,WeatherDisplay:10.37,2013-03-21 10:10:00,
2013-03-21 06:15:00,44.4,8.9,29.59,West,259,3.0,6.0,23,0.00,CLR,,0.00,WeatherDisplay:10.37,2013-03-21 10:15:00,
2013-03-21 06:20:00,43.5,7.1,29.59,WNW,298,5.0,7.0,22,0.00,CLR,,0.00,WeatherDisplay:10.37,2013-03-21 10:20:00,
2013-03-21 06:25:00,42.8,6.5,29.59,NW,312,3.0,7.0,22,0.00,CLR,,0.00,WeatherDisplay:10.37,2013-03-21 10:25:00,
2013-03-21 06:30:00,41.9,6.7,29.59,WNW,292,3.0,6.0,23,0.00,CLR,,0.00,WeatherDisplay:10.37,2013-03-21 10:30:00,
2013-03-21 06:35:00,41.4,7.2,29.58,West,270,8.0,14.0,24,0.00,CLR,,0.00,WeatherDisplay:10.37,2013-03-21 10:35:00,
2013-03-21 06:40:00,40.3,6.3,29.58,West,276,6.0,14.0,24,0.00,CLR,,0.00,WeatherDisplay:10.37,2013-03-21 10:40:00,
2013-03-21 06:45:00,40.5,8.2,29.58,NW,310,6.0,9.0,26,0.00,CLR,,0.00,WeatherDisplay:10.37,2013-03-21 10:45:00,
2013-03-21 06:50:00,40.3,7.2,29.59,NW,325,9.0,14.0,25,0.00,CLR,,0.00,WeatherDisplay:10.37,2013-03-21 10:50:00,
2013-03-21 06:55:00,39.6,6.6,29.59,WNW,288,6.0,14.0,25,0.00,CLR,,0.00,WeatherDisplay:10.37,2013-03-21 10:55:00,
2013-03-21 07:00:00,39.6,6.6,29.59,WNW,293,3.0,10.0,25,0.00,CLR,,0.00,WeatherDisplay:10.37,2013-03-21 11:00:00,
2013-03-21 07:05:00,39.7,7.6,29.59,NNW,328,3.0,4.0,26,0.00,CLR,,0.00,WeatherDisplay:10.37,2013-03-21 11:05:00,
2013-03-21 07:10:00,39.6,7.4,29.59,WNW,302,5.0,9.0,26,0.00,CLR,,0.00,WeatherDisplay:10.37,2013-03-21 11:10:00,
2013-03-21 07:15:00,39.6,7.4,29.59,West,277,7.0,11.0,26,0.00,CLR,,0.00,WeatherDisplay:10.37,2013-03-21 11:15:00,
2013-03-21 07:20:00,39.7,7.6,29.59,WNW,301,3.0,11.0,26,0.00,CLR,,0.00,WeatherDisplay:10.37,2013-03-21 11:20:00,
2013-03-21 07:25:00,40.1,7.9,29.59,NW,315,6.0,7.0,26,0.00,CLR,,0.00,WeatherDisplay:10.37,2013-03-21 11:25:00,
2013-03-21 07:30:00,39.9,7.7,29.59,NW,318,2.0,7.0,26,0.00,CLR,,0.00,WeatherDisplay:10.37,2013-03-21 11:30:00,
2013-03-21 07:35:00,39.4,7.3,29.59,NNW,339,1.0,3.0,26,0.00,CLR,,0.00,WeatherDisplay:10.37,2013-03-21 11:35:00,
2013-03-21 07:40:00,39.0,7.8,29.59,NNW,329,5.0,8.0,27,0.00,CLR,,0.00,WeatherDisplay:10.37,2013-03-21 11:40:00,
2013-03-21 07:45:00,38.5,7.3,29.60,NW,307,3.0,8.0,27,0.00,CLR,,0.00,WeatherDisplay:10.37,2013-03-21 11:45:00,
2013-03-21 07:50:00,38.5,8.1,29.60,NNW,344,1.0,5.0,28,0.00,CLR,,0.00,WeatherDisplay:10.37,2013-03-21 11:50:00,
2013-03-21 07:55:00,38.5,8.1,29.60,NNW,345,3.0,5.0,28,0.00,CLR,,0.00,WeatherDisplay:10.37,2013-03-21 11:55:00,
2013-03-21 08:00:00,38.1,7.0,29.60,WNW,290,9.0,11.0,27,0.00,CLR,,0.00,WeatherDisplay:10.37,2013-03-21 12:00:00,
2013-03-21 08:05:00,37.6,6.6,29.60,WNW,303,2.0,11.0,27,0.00,CLR,,0.00,WeatherDisplay:10.37,2013-03-21 12:05:00,
2013-03-21 08:10:00,37.4,6.4,29.60,NW,308,3.0,4.0,27,0.00,CLR,,0.00,WeatherDisplay:10.37,2013-03-21 12:10:00,
2013-03-21 08:15:00,37.0,2.6,29.61,NNW,328,3.0,4.0,23,0.00,CLR,,0.00,WeatherDisplay:10.37,2013-03-21 12:15:00,
2013-03-21 17:10:00,25.3,10.1,29.69,SE,134,1.0,2.0,52,0.00,CLR,,0.00,WeatherDisplay:10.37,2013-03-21 21:10:00,
2013-03-21 17:15:00,25.3,10.6,29.69,SSE,147,0.0,2.0,53,0.00,CLR,,0.00,WeatherDisplay:10.37,2013-03-21 21:15:00,
2013-03-21 17:20:00,25.2,10.4,29.69,SE,127,0.0,2.0,53,0.00,CLR,,0.00,WeatherDisplay:10.37,2013-03-21 21:20:00,
2013-03-21 17:25:00,25.2,10.4,29.69,East,88,1.0,2.0,53,0.00,CLR,,0.00,WeatherDisplay:10.37,2013-03-21 21:25:00,
2013-03-21 17:30:00,25.2,10.4,29.69,East,86,1.0,2.0,53,0.00,CLR,,0.00,WeatherDisplay:10.37,2013-03-21 21:30:00,
2013-03-21 17:35:00,25.2,10.8,29.69,SE,126,0.0,2.0,54,0.00,CLR,,0.00,WeatherDisplay:10.37,2013-03-21 21:35:00,
2013-03-21 17:40:00,25.2,10.8,29.69,NNE,31,1.0,2.0,54,0.00,CLR,,0.00,WeatherDisplay:10.37,2013-03-21 21:40:00,
2013-03-21 17:45:00,25.2,10.8,29.69,NNE,32,1.0,2.0,54,0.00,CLR,,0.00,WeatherDisplay:10.37,2013-03-21 21:45:00,
2013-03-21 17:50:00,25.2,11.2,29.69,SSE,161,1.0,2.0,55,0.00,CLR,,0.00,WeatherDisplay:10.37,2013-03-21 21:50:00,
2013-03-21 17:55:00,25.3,11.4,29.69,SSW,202,1.0,2.0,55,0.00,CLR,,0.00,WeatherDisplay:10.37,2013-03-21 21:55:00,
2013-03-21 18:00:00,25.3,11.4,29.68,SSW,194,0.0,2.0,55,0.00,CLR,,0.00,WeatherDisplay:10.37,2013-03-21 22:00:00,
2013-03-21 18:05:00,25.3,11.8,29.69,NE,42,1.0,2.0,56,0.00,CLR,,0.00,WeatherDisplay:10.37,2013-03-21 22:05:00,
2013-03-21 18:10:00,25.3,11.8,29.68,ENE,64,1.0,2.0,56,0.00,CLR,,0.00,WeatherDisplay:10.37,2013-03-21 22:10:00,
2013-03-21 18:15:00,25.2,11.6,29.69,ESE,109,1.0,2.0,56,0.00,CLR,,0.00,WeatherDisplay:10.37,2013-03-21 22:15:00,
2013-03-21 18:20:00,25.3,11.8,29.68,SSE,163,1.0,2.0,56,0.00,CLR,,0.00,WeatherDisplay:10.37,2013-03-21 22:20:00,
2013-03-21 18:25:00,36.7,3.2,29.61,NW,324,5.0,12.0,24,0.00,BKN,,0.00,WeatherDisplay:10.37,2013-03-21 22:25:00,
2013-03-21 18:30:00,25.2,11.6,29.69,NE,54,0.0,2.0,56,0.00,CLR,,0.00,WeatherDisplay:10.37,2013-03-21 22:30:00,
2013-03-21 18:31:00,36.4,3.0,29.61,NW,306,6.0,15.0,24,0.00,BKN,,0.00,WeatherDisplay:10.37,2013-03-21 22:31:00,
2013-03-21 18:35:00,25.2,12.0,29.68,East,92,1.0,2.0,57,0.00,CLR,,0.00,WeatherDisplay:10.37,2013-03-21 22:35:00,
2013-03-21 18:40:00,36.0,4.3,29.62,WNW,298,5.0,9.0,26,0.00,BKN,,0.00,WeatherDisplay:10.37,2013-03-21 22:40:00,
2013-03-21 18:45:00,35.6,4.0,29.62,WNW,296,5.0,12.0,26,0.00,BKN,,0.00,WeatherDisplay:10.37,2013-03-21 22:45:00,
2013-03-21 18:50:00,35.4,5.5,29.62,WNW,292,5.0,11.0,28,0.00,BKN,,0.00,WeatherDisplay:10.37,2013-03-21 22:50:00,
2013-03-21 18:55:00,35.2,5.3,29.62,WNW,293,3.0,12.0,28,0.00,BKN,,0.00,WeatherDisplay:10.37,2013-03-21 22:55:00,
2013-03-21 19:00:00,35.2,5.3,29.62,WNW,303,5.0,8.0,28,0.00,BKN,,0.00,WeatherDisplay:10.37,2013-03-21 23:00:00,
2013-03-21 19:05:00,35.1,5.2,29.63,WNW,301,2.0,8.0,28,0.00,BKN,,0.00,WeatherDisplay:10.37,2013-03-21 23:05:00,
2013-03-21 19:10:00,34.9,5.0,29.63,WNW,284,5.0,12.0,28,0.00,BKN,,0.00,WeatherDisplay:10.37,2013-03-21 23:10:00,
2013-03-21 19:15:00,34.7,4.9,29.64,WNW,283,2.0,11.0,28,0.00,OVC,,0.00,WeatherDisplay:10.37,2013-03-21 23:15:00,
2013-03-21 19:20:00,34.5,6.2,29.64,WNW,294,8.0,15.0,30,0.00,OVC,,0.00,WeatherDisplay:10.37,2013-03-21 23:20:00,
2013-03-21 19:25:00,34.3,7.5,29.64,WNW,289,3.0,15.0,32,0.00,OVC,,0.00,WeatherDisplay:10.37,2013-03-21 23:25:00,
2013-03-21 19:30:00,34.0,8.5,29.65,NW,304,3.0,10.0,34,0.00,OVC,,0.00,WeatherDisplay:10.37,2013-03-21 23:30:00,
2013-03-21 19:35:00,33.6,10.7,29.64,NW,314,2.0,7.0,38,0.00,OVC,,0.00,WeatherDisplay:10.37,2013-03-21 23:35:00,
2013-03-21 19:40:00,33.3,12.6,29.64,West,277,3.0,7.0,42,0.00,OVC,,0.00,WeatherDisplay:10.37,2013-03-21 23:40:00,
2013-03-21 19:45:00,33.1,13.0,29.65,West,274,3.0,7.0,43,0.00,OVC,,0.00,WeatherDisplay:10.37,2013-03-21 23:45:00,
2013-03-21 19:50:00,32.9,13.3,29.65,WNW,298,1.0,6.0,44,0.00,OVC,,0.00,WeatherDisplay:10.37,2013-03-21 23:50:00,
2013-03-21 19:55:00,32.7,13.2,29.65,West,275,0.0,6.0,44,0.00,OVC,,0.00,WeatherDisplay:10.37,2013-03-21 23:55:00,
2013-03-21 20:00:00,32.6,13.0,29.65,WSW,247,2.0,3.0,44,0.00,OVC,,0.00,WeatherDisplay:10.37,2013-03-22 00:00:00,
2013-03-21 20:05:00,32.5,13.0,29.66,West,279,2.0,8.0,44,0.00,OVC,,0.00,WeatherDisplay:10.37,2013-03-22 00:05:00,
2013-03-21 20:10:00,32.4,12.8,29.66,WNW,284,3.0,8.0,44,0.00,OVC,,0.00,WeatherDisplay:10.37,2013-03-22 00:10:00,
2013-03-21 20:15:00,32.4,12.3,29.66,WNW,294,1.0,6.0,43,0.00,BKN,,0.00,WeatherDisplay:10.37,2013-03-22 00:15:00,
2013-03-21 20:20:00,32.2,12.2,29.66,WNW,285,5.0,7.0,43,0.00,BKN,,0.00,WeatherDisplay:10.37,2013-03-22 00:20:00,
2013-03-21 20:25:00,32.2,12.2,29.66,WNW,284,2.0,5.0,43,0.00,BKN,,0.00,WeatherDisplay:10.37,2013-03-22 00:25:00,
2013-03-21 20:30:00,32.0,12.0,29.66,WNW,301,1.0,5.0,43,0.00,BKN,,0.00,WeatherDisplay:10.37,2013-03-22 00:30:00,
2013-03-21 20:35:00,31.8,12.4,29.67,WNW,303,1.0,5.0,44,0.00,BKN,,0.00,WeatherDisplay:10.37,2013-03-22 00:35:00,
2013-03-21 20:40:00,31.8,12.4,29.67,NNW,337,2.0,6.0,44,0.00,BKN,,0.00,WeatherDisplay:10.37,2013-03-22 00:40:00,
2013-03-21 20:45:00,31.6,12.7,29.67,WNW,302,2.0,6.0,45,0.00,BKN,,0.00,WeatherDisplay:10.37,2013-03-22 00:45:00,
2013-03-21 20:50:00,31.6,12.7,29.67,West,273,2.0,9.0,45,0.00,BKN,,0.00,WeatherDisplay:10.37,2013-03-22 00:50:00,
2013-03-21 20:55:00,31.5,12.5,29.67,West,262,0.0,3.0,45,0.00,BKN,,0.00,WeatherDisplay:10.37,2013-03-22 00:55:00,
2013-03-21 21:00:00,31.3,12.4,29.67,WNW,297,2.0,5.0,45,0.00,BKN,,0.00,WeatherDisplay:10.37,2013-03-22 01:00:00,
2013-03-21 21:05:00,31.3,12.4,29.67,WNW,294,1.0,5.0,45,0.00,CLR,,0.00,WeatherDisplay:10.37,2013-03-22 01:05:00,
2013-03-21 21:10:00,31.1,12.7,29.67,West,281,2.0,5.0,46,0.00,CLR,,0.00,WeatherDisplay:10.37,2013-03-22 01:10:00,
2013-03-21 21:15:00,30.9,12.5,29.68,West,262,1.0,4.0,46,0.00,CLR,,0.00,WeatherDisplay:10.37,2013-03-22 01:15:00,
2013-03-21 21:20:00,30.9,12.5,29.68,West,270,2.0,4.0,46,0.00,CLR,,0.00,WeatherDisplay:10.37,2013-03-22 01:20:00,
2013-03-21 21:25:00,30.7,12.4,29.68,WNW,296,1.0,6.0,46,0.00,CLR,,0.00,WeatherDisplay:10.37,2013-03-22 01:25:00,
2013-03-21 21:30:00,30.7,12.8,29.68,NW,311,2.0,6.0,47,0.00,CLR,,0.00,WeatherDisplay:10.37,2013-03-22 01:30:00,
2013-03-21 21:35:00,30.6,12.7,29.68,WNW,300,3.0,5.0,47,0.00,CLR,,0.00,WeatherDisplay:10.37,2013-03-22 01:35:00,
2013-03-21 21:40:00,30.6,12.7,29.68,WNW,292,1.0,4.0,47,0.00,CLR,,0.00,WeatherDisplay:10.37,2013-03-22 01:40:00,
2013-03-21 21:45:00,30.4,13.0,29.68,WNW,292,1.0,3.0,48,0.00,CLR,,0.00,WeatherDisplay:10.37,2013-03-22 01:45:00,
2013-03-21 21:50:00,30.4,13.0,29.68,NW,306,2.0,5.0,48,0.00,CLR,,0.00,WeatherDisplay:10.37,2013-03-22 01:50:00,
2013-03-21 21:55:00,30.2,12.8,29.68,West,281,2.0,5.0,48,0.00,CLR,,0.00,WeatherDisplay:10.37,2013-03-22 01:55:00,
2013-03-21 22:00:00,30.2,12.8,29.69,WSW,249,2.0,5.0,48,0.00,CLR,,0.00,WeatherDisplay:10.37,2013-03-22 02:00:00,
2013-03-21 22:05:00,30.0,13.1,29.68,WSW,256,1.0,6.0,49,0.00,CLR,,0.00,WeatherDisplay:10.37,2013-03-22 02:05:00,
2013-03-21 22:10:00,30.0,13.1,29.69,West,273,3.0,6.0,49,0.00,CLR,,0.00,WeatherDisplay:10.37,2013-03-22 02:10:00,
2013-03-21 22:15:00,30.0,13.1,29.68,WNW,291,2.0,7.0,49,0.00,CLR,,0.00,WeatherDisplay:10.37,2013-03-22 02:15:00,
2013-03-21 22:20:00,29.8,12.5,29.68,WNW,298,5.0,8.0,48,0.00,CLR,,0.00,WeatherDisplay:10.37,2013-03-22 02:20:00,
2013-03-21 22:25:00,29.8,12.5,29.68,WNW,294,1.0,4.0,48,0.00,CLR,,0.00,WeatherDisplay:10.37,2013-03-22 02:25:00,
2013-03-21 22:30:00,29.7,12.4,29.69,West,281,1.0,4.0,48,0.00,CLR,,0.00,WeatherDisplay:10.37,2013-03-22 02:30:00,
2013-03-21 22:35:00,29.7,12.3,29.69,West,273,1.0,3.0,48,0.00,CLR,,0.00,WeatherDisplay:10.37,2013-03-22 02:35:00,
2013-03-21 22:40:00,30.4,16.9,29.76,NW,321,3.0,5.0,57,0.00,CLR,,0.00,WeatherDisplay:10.37,2013-03-22 02:40:00,
2013-03-21 22:41:00,29.5,12.2,29.69,WSW,250,1.0,5.0,48,0.00,CLR,,0.00,WeatherDisplay:10.37,2013-03-22 02:41:00,
2013-03-21 22:45:00,30.4,16.9,29.75,WNW,297,6.0,9.0,57,0.00,CLR,,0.00,WeatherDisplay:10.37,2013-03-22 02:45:00,
2013-03-21 22:46:00,29.5,12.2,29.69,West,259,0.0,5.0,48,0.00,CLR,,0.00,WeatherDisplay:10.37,2013-03-22 02:46:00,
2013-03-21 22:51:00,29.3,12.0,29.69,WSW,245,2.0,4.0,48,0.00,CLR,,0.00,WeatherDisplay:10.37,2013-03-22 02:51:00,
2013-03-21 22:56:00,29.3,11.5,29.69,WSW,252,2.0,5.0,47,0.00,CLR,,0.00,WeatherDisplay:10.37,2013-03-22 02:56:00,
2013-03-21 23:01:00,29.3,11.5,29.69,SW,226,1.0,10.0,47,0.00,CLR,,0.00,WeatherDisplay:10.37,2013-03-22 03:01:00,
2013-03-21 23:06:00,29.3,11.5,29.69,SW,228,0.0,3.0,47,0.00,CLR,,0.00,WeatherDisplay:10.37,2013-03-22 03:06:00,
2013-03-21 23:11:00,29.1,11.4,29.69,West,281,1.0,3.0,47,0.00,CLR,,0.00,WeatherDisplay:10.37,2013-03-22 03:11:00,
2013-03-21 23:21:00,28.8,11.5,29.69,South,177,0.0,3.0,48,0.00,CLR,,0.00,WeatherDisplay:10.37,2013-03-22 03:21:00,
2013-03-21 23:30:00,28.6,11.3,29.69,NE,40,0.0,2.0,48,0.00,CLR,,0.00,WeatherDisplay:10.37,2013-03-22 03:30:00,
2013-03-21 23:35:00,28.6,11.3,29.69,South,190,1.0,2.0,48,0.00,CLR,,0.00,WeatherDisplay:10.37,2013-03-22 03:35:00,
2013-03-21 23:40:00,28.4,11.2,29.70,SSW,212,0.0,3.0,48,0.00,CLR,,0.00,WeatherDisplay:10.37,2013-03-22 03:40:00,
2013-03-21 23:45:00,28.2,9.6,29.70,SSE,160,0.0,2.0,45,0.00,CLR,,0.00,WeatherDisplay:10.37,2013-03-22 03:45:00,
2013-03-21 23:50:00,28.2,9.6,29.70,East,86,0.0,2.0,45,0.00,CLR,,0.00,WeatherDisplay:10.37,2013-03-22 03:50:00,
2013-03-21 23:55:00,28.0,9.9,29.70,ESE,104,1.0,2.0,46,0.00,CLR,,0.00,WeatherDisplay:10.37,2013-03-22 03:55:00,